• In Uzbekistan
  • List of Countries
  • For 7 days
  • Water Temperature
  • Satellite Maps
  • Weather Map
  • Weather Widgets
  • user-avatar
    Login

    Hourly Weather Inverclyde

    Today, 22 February, Thursday

    Time Temperature Precipitation Wind Pressure Humidity
    00:00 +1°C° 0 mm 2 mps 766 mmHg 91%
    01:00 +1°C° 0 mm 2 mps 766 mmHg 91%
    02:00 +1°C° 0 mm 2 mps 766 mmHg 91%
    03:00 +1°C° 0 mm 2 mps 765 mmHg 91%
    04:00 +1°C° 0 mm 2 mps 765 mmHg 91%
    05:00 +1°C° 0 mm 2 mps 765 mmHg 91%
    06:00 -1°C° 0 mm 2 mps 765 mmHg 91%
    07:00 0°C° 0 mm 3 mps 764 mmHg 89%
    08:00 +1°C° 0 mm 3 mps 764 mmHg 86%
    09:00 +1°C° 0 mm 3 mps 764 mmHg 84%
    10:00 +1°C° 0 mm 4 mps 764 mmHg 80%
    11:00 +4°C° 0 mm 4 mps 764 mmHg 77%
    12:00 +5°C° 0 mm 5 mps 763 mmHg 74%
    13:00 +5°C° 0 mm 5 mps 763 mmHg 74%
    14:00 +5°C° 0 mm 5 mps 763 mmHg 75%
    15:00 +5°C° 0 mm 4 mps 763 mmHg 76%
    16:00 +4°C° 0 mm 4 mps 763 mmHg 80%
    17:00 +3°C° 0 mm 4 mps 762 mmHg 83%
    18:00 +3°C° 0 mm 3 mps 762 mmHg 87%
    19:00 +2°C° 0 mm 3 mps 762 mmHg 88%
    20:00 +2°C° 0 mm 3 mps 762 mmHg 89%
    21:00 +1°C° 0 mm 3 mps 762 mmHg 90%
    22:00 +1°C° 0 mm 3 mps 762 mmHg 90%
    23:00 +1°C° 0 mm 3 mps 762 mmHg 90%

    Tomorrow, 23 February, Friday

    Time Temperature Precipitation Wind Pressure Humidity
    00:00 +1°C° 0 mm 3 mps 762 mmHg 90%
    01:00 +1°C° 0 mm 3 mps 762 mmHg 90%
    02:00 +1°C° 0 mm 3 mps 762 mmHg 90%
    03:00 +1°C° 0 mm 3 mps 762 mmHg 90%
    04:00 +1°C° 0 mm 3 mps 762 mmHg 90%
    05:00 +1°C° 0 mm 3 mps 762 mmHg 90%
    06:00 +1°C° 0 mm 3 mps 762 mmHg 90%
    07:00 +1°C° 0 mm 3 mps 762 mmHg 88%
    08:00 +1°C° 0 mm 3 mps 762 mmHg 87%
    09:00 +2°C° 0 mm 3 mps 762 mmHg 85%
    10:00 +2°C° 0 mm 3 mps 762 mmHg 80%
    11:00 +3°C° 0 mm 4 mps 762 mmHg 76%
    12:00 +4°C° 0 mm 4 mps 762 mmHg 72%
    13:00 +4°C° 0 mm 4 mps 762 mmHg 70%
    14:00 +4°C° 0 mm 4 mps 762 mmHg 69%
    15:00 +4°C° 0 mm 4 mps 762 mmHg 68%
    16:00 +3°C° 0 mm 4 mps 762 mmHg 71%
    17:00 +1°C° 0 mm 4 mps 762 mmHg 74%
    18:00 0°C° 0 mm 4 mps 762 mmHg 78%
    19:00 0°C° 0 mm 4 mps 762 mmHg 79%
    20:00 0°C° 0 mm 4 mps 762 mmHg 80%
    21:00 0°C° 0 mm 4 mps 762 mmHg 81%
    22:00 -1°C° 0 mm 4 mps 762 mmHg 82%
    23:00 -1°C° 0 mm 4 mps 762 mmHg 82%

    Day after tomorrow, 24 February, Saturday

    Time Temperature Precipitation Wind Pressure Humidity
    00:00 -1°C° 0 mm 4 mps 762 mmHg 83%
    01:00 -1°C° 0 mm 4 mps 763 mmHg 83%
    02:00 -1°C° 0 mm 4 mps 763 mmHg 83%
    03:00 -1°C° 0 mm 4 mps 763 mmHg 83%
    04:00 -1°C° 0 mm 4 mps 763 mmHg 83%
    05:00 -2°C° 0 mm 4 mps 763 mmHg 83%
    06:00 -2°C° 0 mm 4 mps 763 mmHg 83%
    07:00 -1°C° 0 mm 4 mps 764 mmHg 80%
    08:00 -1°C° 0 mm 4 mps 764 mmHg 77%
    09:00 -1°C° 0 mm 4 mps 764 mmHg 74%
    10:00 0°C° 0 mm 5 mps 764 mmHg 69%
    11:00 +2°C° 0 mm 5 mps 765 mmHg 64%
    12:00 +3°C° 0 mm 6 mps 765 mmHg 59%
    13:00 +3°C° 0 mm 6 mps 765 mmHg 60%
    14:00 +3°C° 0 mm 6 mps 765 mmHg 60%
    15:00 +3°C° 0 mm 6 mps 765 mmHg 61%
    16:00 +2°C° 0 mm 5 mps 766 mmHg 66%
    17:00 +1°C° 0 mm 5 mps 766 mmHg 71%
    18:00 -1°C° 0 mm 4 mps 767 mmHg 77%
    19:00 -1°C° 0 mm 4 mps 767 mmHg 79%
    20:00 -1°C° 0 mm 4 mps 768 mmHg 81%
    21:00 -1°C° 0 mm 4 mps 768 mmHg 83%
    22:00 -1°C° 0 mm 4 mps 768 mmHg 84%
    23:00 -1°C° 0 mm 4 mps 769 mmHg 84%

    25 February, Sunday

    Time Temperature Precipitation Wind Pressure Humidity
    00:00 -1°C° 0 mm 4 mps 769 mmHg 84%
    01:00 -1°C° 0 mm 4 mps 769 mmHg 84%
    02:00 -1°C° 0 mm 4 mps 769 mmHg 85%
    03:00 -1°C° 0 mm 4 mps 769 mmHg 85%
    04:00 -1°C° 0 mm 4 mps 769 mmHg 86%
    05:00 -1°C° 0 mm 4 mps 769 mmHg 86%
    06:00 -1°C° 0 mm 4 mps 769 mmHg 87%
    07:00 0°C° 0 mm 4 mps 770 mmHg 84%
    08:00 0°C° 0 mm 4 mps 770 mmHg 82%
    09:00 +1°C° 0 mm 4 mps 770 mmHg 79%
    10:00 +1°C° 0 mm 4 mps 770 mmHg 74%
    11:00 +3°C° 0 mm 4 mps 770 mmHg 70%
    12:00 +3°C° 0 mm 5 mps 770 mmHg 66%
    13:00 +3°C° 0 mm 5 mps 770 mmHg 65%
    14:00 +4°C° 0 mm 4 mps 770 mmHg 65%
    15:00 +4°C° 0 mm 4 mps 770 mmHg 65%
    16:00 +3°C° 0 mm 4 mps 770 mmHg 70%
    17:00 +1°C° 0 mm 3 mps 770 mmHg 76%
    18:00 0°C° 0 mm 3 mps 771 mmHg 82%
    19:00 0°C° 0 mm 3 mps 771 mmHg 84%
    20:00 -1°C° 0 mm 3 mps 771 mmHg 86%
    21:00 -1°C° 0 mm 3 mps 771 mmHg 87%
    22:00 -1°C° 0 mm 2 mps 771 mmHg 87%
    23:00 -2°C° 0 mm 2 mps 771 mmHg 86%

    26 February, Monday

    Time Temperature Precipitation Wind Pressure Humidity
    00:00 -2°C° 0 mm 2 mps 772 mmHg 86%
    01:00 -2°C° 0 mm 2 mps 772 mmHg 85%
    02:00 -2°C° 0 mm 2 mps 772 mmHg 83%
    03:00 -2°C° 0 mm 2 mps 772 mmHg 82%
    04:00 -3°C° 0 mm 2 mps 772 mmHg 80%
    05:00 -3°C° 0 mm 2 mps 772 mmHg 79%
    06:00 -3°C° 0 mm 2 mps 772 mmHg 77%
    07:00 0°C° 0 mm 1 mps 772 mmHg 74%
    08:00 0°C° 0 mm 1 mps 772 mmHg 71%
    09:00 +1°C° 0 mm 1 mps 772 mmHg 67%
    10:00 +2°C° 0 mm 1 mps 772 mmHg 62%
    11:00 +4°C° 0 mm 1 mps 772 mmHg 58%
    12:00 +5°C° 0 mm 1 mps 772 mmHg 53%
    13:00 +4°C° 0 mm 2 mps 771 mmHg 53%
    14:00 +4°C° 0 mm 2 mps 771 mmHg 53%
    15:00 +5°C° 0 mm 2 mps 771 mmHg 53%
    16:00 +3°C° 0 mm 2 mps 771 mmHg 60%
    17:00 +2°C° 0 mm 2 mps 771 mmHg 66%
    18:00 -1°C° 0 mm 2 mps 771 mmHg 72%
    19:00 -1°C° 0 mm 2 mps 771 mmHg 75%
    20:00 -1°C° 0 mm 2 mps 771 mmHg 78%
    21:00 -2°C° 0 mm 2 mps 771 mmHg 80%
    22:00 -2°C° 0 mm 2 mps 771 mmHg 81%
    23:00 -2°C° 0 mm 2 mps 771 mmHg 82%

    27 February, Tuesday

    Time Temperature Precipitation Wind Pressure Humidity
    00:00 -2°C° 0 mm 2 mps 771 mmHg 83%
    01:00 -2°C° 0 mm 2 mps 771 mmHg 83%
    02:00 0°C° 0 mm 1 mps 771 mmHg 82%
    03:00 0°C° 0 mm 1 mps 771 mmHg 82%
    04:00 0°C° 0.1 mm 1 mps 770 mmHg 82%
    05:00 0°C° 0.1 mm 1 mps 770 mmHg 82%
    06:00 0°C° 0.1 mm 1 mps 770 mmHg 82%
    07:00 +1°C° 0.1 mm 1 mps 769 mmHg 82%
    08:00 +1°C° 0.1 mm 1 mps 769 mmHg 81%
    09:00 +2°C° 0.1 mm 1 mps 769 mmHg 81%
    10:00 +2°C° 0.1 mm 1 mps 769 mmHg 77%
    11:00 +3°C° 0.1 mm 1 mps 768 mmHg 73%
    12:00 +4°C° 0.1 mm 1 mps 768 mmHg 70%
    13:00 +4°C° 0 mm 1 mps 768 mmHg 68%
    14:00 +4°C° 0 mm 1 mps 767 mmHg 66%
    15:00 +4°C° 0 mm 1 mps 766 mmHg 65%
    16:00 +3°C° 0 mm 1 mps 766 mmHg 69%
    17:00 +2°C° 0 mm 1 mps 766 mmHg 73%
    18:00 +1°C° 0 mm 1 mps 765 mmHg 78%
    19:00 +1°C° 0 mm 1 mps 765 mmHg 79%
    20:00 +1°C° 0 mm 1 mps 764 mmHg 80%
    21:00 -1°C° 0 mm 2 mps 764 mmHg 81%
    22:00 -2°C° 0.1 mm 2 mps 763 mmHg 83%
    23:00 -2°C° 0.1 mm 2 mps 763 mmHg 85%
    Show more